When you browse on this site, cookies collect data to enhance your experience and personalize the content and advertising you see.
Visit our Privacy Policy to learn more. By continuing to use the site, you agree to this use of cookies and data.
  • In United Kingdom
  • List of Countries
  • For 7 days
  • Water Temperature
  • Satellite Maps
  • Weather Map
  • Weather Widgets
  • user-avatar
    Login

    Hourly Weather Kazanketken

    Today, 20 June, Thursday

    Time Temperature Precipitation Wind Pressure Humidity
    00:00 +23°C° 0 mm 4 mps 750 mmHg 39%
    01:00 +24°C° 0 mm 3 mps 750 mmHg 42%
    02:00 +22°C° 0 mm 3 mps 750 mmHg 43%
    03:00 +22°C° 0 mm 3 mps 750 mmHg 44%
    04:00 +21°C° 0 mm 2 mps 750 mmHg 45%
    05:00 +24°C° 0 mm 3 mps 750 mmHg 41%
    06:00 +26°C° 0 mm 3 mps 750 mmHg 36%
    07:00 +28°C° 0 mm 3 mps 751 mmHg 32%
    08:00 +30°C° 0 mm 2 mps 750 mmHg 26%
    09:00 +32°C° 0 mm 1 mps 750 mmHg 20%
    10:00 +35°C° 0 mm 1 mps 750 mmHg 15%
    11:00 +36°C° 0 mm 1 mps 750 mmHg 13%
    12:00 +37°C° 0 mm 1 mps 750 mmHg 12%
    13:00 +39°C° 0 mm 2 mps 749 mmHg 11%
    14:00 +39°C° 0 mm 2 mps 749 mmHg 10%
    15:00 +40°C° 0 mm 1 mps 749 mmHg 10%
    16:00 +40°C° 0 mm 1 mps 749 mmHg 9%
    17:00 +39°C° 0 mm 3 mps 749 mmHg 11%
    18:00 +37°C° 0 mm 5 mps 748 mmHg 13%
    19:00 +36°C° 0 mm 7 mps 748 mmHg 15%
    20:00 +34°C° 0 mm 7 mps 749 mmHg 16%
    21:00 +33°C° 0 mm 6 mps 749 mmHg 17%
    22:00 +30°C° 0 mm 6 mps 749 mmHg 19%
    23:00 +29°C° 0 mm 6 mps 749 mmHg 21%

    Tomorrow, 21 June, Friday

    Time Temperature Precipitation Wind Pressure Humidity
    00:00 +29°C° 0 mm 6 mps 749 mmHg 24%
    01:00 +28°C° 0 mm 6 mps 748 mmHg 26%
    02:00 +28°C° 0 mm 6 mps 748 mmHg 25%
    03:00 +27°C° 0 mm 6 mps 748 mmHg 24%
    04:00 +27°C° 0 mm 5 mps 748 mmHg 23%
    05:00 +29°C° 0 mm 6 mps 749 mmHg 21%
    06:00 +32°C° 0 mm 6 mps 749 mmHg 19%
    07:00 +34°C° 0 mm 6 mps 749 mmHg 16%
    08:00 +36°C° 0 mm 6 mps 749 mmHg 14%
    09:00 +39°C° 0 mm 5 mps 749 mmHg 12%
    10:00 +41°C° 0 mm 5 mps 749 mmHg 10%
    11:00 +41°C° 0 mm 5 mps 749 mmHg 9%
    12:00 +42°C° 0 mm 5 mps 749 mmHg 9%
    13:00 +44°C° 0 mm 6 mps 749 mmHg 9%
    14:00 +43°C° 0 mm 7 mps 749 mmHg 9%
    15:00 +42°C° 0 mm 9 mps 749 mmHg 10%
    16:00 +42°C° 0 mm 10 mps 749 mmHg 11%
    17:00 +39°C° 0 mm 10 mps 749 mmHg 13%
    18:00 +37°C° 0 mm 9 mps 749 mmHg 15%
    19:00 +34°C° 0 mm 8 mps 749 mmHg 17%
    20:00 +33°C° 0 mm 7 mps 749 mmHg 19%
    21:00 +32°C° 0 mm 6 mps 750 mmHg 21%
    22:00 +30°C° 0 mm 5 mps 750 mmHg 23%
    23:00 +29°C° 0 mm 5 mps 750 mmHg 23%

    Day after tomorrow, 22 June, Saturday

    Time Temperature Precipitation Wind Pressure Humidity
    00:00 +29°C° 0 mm 5 mps 750 mmHg 23%
    01:00 +28°C° 0 mm 4 mps 750 mmHg 24%
    02:00 +28°C° 0 mm 4 mps 751 mmHg 25%
    03:00 +27°C° 0 mm 4 mps 751 mmHg 25%
    04:00 +27°C° 0 mm 4 mps 751 mmHg 26%
    05:00 +29°C° 0 mm 4 mps 752 mmHg 26%
    06:00 +30°C° 0 mm 5 mps 752 mmHg 26%
    07:00 +33°C° 0 mm 5 mps 752 mmHg 26%
    08:00 +35°C° 0 mm 5 mps 753 mmHg 22%
    09:00 +36°C° 0 mm 6 mps 753 mmHg 19%
    10:00 +39°C° 0 mm 7 mps 753 mmHg 16%
    11:00 +40°C° 0 mm 7 mps 753 mmHg 15%
    12:00 +40°C° 0 mm 7 mps 753 mmHg 15%
    13:00 +40°C° 0 mm 8 mps 753 mmHg 14%
    14:00 +40°C° 0 mm 8 mps 753 mmHg 15%
    15:00 +39°C° 0 mm 8 mps 753 mmHg 16%
    16:00 +39°C° 0 mm 8 mps 753 mmHg 16%
    17:00 +38°C° 0 mm 7 mps 753 mmHg 18%
    18:00 +36°C° 0 mm 6 mps 753 mmHg 20%
    19:00 +34°C° 0 mm 5 mps 753 mmHg 22%
    20:00 +32°C° 0 mm 5 mps 753 mmHg 29%
    21:00 +29°C° 0 mm 5 mps 753 mmHg 36%
    22:00 +27°C° 0 mm 4 mps 754 mmHg 43%
    23:00 +27°C° 0 mm 4 mps 753 mmHg 43%

    23 June, Sunday

    Time Temperature Precipitation Wind Pressure Humidity
    00:00 +26°C° 0 mm 4 mps 753 mmHg 43%
    01:00 +26°C° 0 mm 4 mps 753 mmHg 44%
    02:00 +25°C° 0 mm 4 mps 753 mmHg 47%
    03:00 +25°C° 0 mm 4 mps 753 mmHg 50%
    04:00 +23°C° 0 mm 4 mps 753 mmHg 52%
    05:00 +27°C° 0 mm 5 mps 753 mmHg 42%
    06:00 +29°C° 0 mm 7 mps 753 mmHg 32%
    07:00 +33°C° 0 mm 8 mps 754 mmHg 21%
    08:00 +35°C° 0 mm 8 mps 754 mmHg 18%
    09:00 +38°C° 0 mm 8 mps 754 mmHg 15%
    10:00 +40°C° 0 mm 8 mps 754 mmHg 13%
    11:00 +41°C° 0 mm 8 mps 754 mmHg 12%
    12:00 +43°C° 0 mm 8 mps 754 mmHg 11%
    13:00 +43°C° 0 mm 8 mps 754 mmHg 10%
    14:00 +43°C° 0 mm 9 mps 754 mmHg 12%
    15:00 +42°C° 0 mm 10 mps 753 mmHg 14%
    16:00 +41°C° 0 mm 11 mps 753 mmHg 15%
    17:00 +38°C° 0 mm 10 mps 753 mmHg 18%
    18:00 +36°C° 0 mm 10 mps 753 mmHg 20%
    19:00 +33°C° 0 mm 10 mps 754 mmHg 23%
    20:00 +32°C° 0 mm 9 mps 754 mmHg 25%
    21:00 +30°C° 0 mm 7 mps 754 mmHg 26%
    22:00 +29°C° 0 mm 6 mps 754 mmHg 28%
    23:00 +29°C° 0 mm 6 mps 754 mmHg 27%

    24 June, Monday

    Time Temperature Precipitation Wind Pressure Humidity
    00:00 +28°C° 0 mm 5 mps 754 mmHg 27%
    01:00 +28°C° 0 mm 5 mps 754 mmHg 26%
    02:00 +28°C° 0 mm 4 mps 754 mmHg 24%
    03:00 +27°C° 0 mm 4 mps 754 mmHg 22%
    04:00 +27°C° 0 mm 4 mps 754 mmHg 21%
    05:00 +28°C° 0 mm 4 mps 754 mmHg 19%
    06:00 +30°C° 0 mm 4 mps 755 mmHg 17%
    07:00 +33°C° 0 mm 5 mps 755 mmHg 15%
    08:00 +34°C° 0 mm 5 mps 755 mmHg 14%
    09:00 +36°C° 0 mm 5 mps 755 mmHg 12%
    10:00 +38°C° 0 mm 6 mps 755 mmHg 11%
    11:00 +39°C° 0 mm 6 mps 755 mmHg 11%
    12:00 +40°C° 0 mm 6 mps 755 mmHg 10%
    13:00 +40°C° 0 mm 6 mps 755 mmHg 9%
    14:00 +40°C° 0 mm 7 mps 755 mmHg 10%
    15:00 +39°C° 0 mm 7 mps 754 mmHg 11%
    16:00 +39°C° 0 mm 8 mps 754 mmHg 11%
    17:00 +36°C° 0 mm 7 mps 754 mmHg 14%
    18:00 +34°C° 0 mm 7 mps 754 mmHg 16%
    19:00 +33°C° 0 mm 6 mps 754 mmHg 18%
    20:00 +30°C° 0 mm 6 mps 754 mmHg 23%
    21:00 +28°C° 0 mm 5 mps 754 mmHg 27%
    22:00 +26°C° 0 mm 5 mps 754 mmHg 32%
    23:00 +26°C° 0 mm 4 mps 754 mmHg 32%

    25 June, Tuesday

    Time Temperature Precipitation Wind Pressure Humidity
    00:00 +26°C° 0 mm 4 mps 754 mmHg 33%
    01:00 +26°C° 0 mm 4 mps 753 mmHg 33%
    02:00 +26°C° 0 mm 3 mps 753 mmHg 33%
    03:00 +25°C° 0 mm 3 mps 753 mmHg 33%
    04:00 +25°C° 0 mm 3 mps 753 mmHg 34%
    05:00 +27°C° 0 mm 3 mps 753 mmHg 30%
    06:00 +29°C° 0 mm 3 mps 754 mmHg 27%
    07:00 +31°C° 0 mm 3 mps 754 mmHg 24%
    08:00 +34°C° 0 mm 4 mps 754 mmHg 20%
    09:00 +36°C° 0 mm 4 mps 754 mmHg 16%
    10:00 +40°C° 0 mm 5 mps 754 mmHg 11%
    11:00 +40°C° 0 mm 5 mps 754 mmHg 11%
    12:00 +41°C° 0 mm 5 mps 753 mmHg 11%
    13:00 +42°C° 0 mm 5 mps 753 mmHg 11%
    14:00 +42°C° 0 mm 6 mps 753 mmHg 11%
    15:00 +42°C° 0 mm 6 mps 753 mmHg 11%
    16:00 +42°C° 0 mm 6 mps 752 mmHg 11%
    17:00 +40°C° 0 mm 6 mps 752 mmHg 13%
    18:00 +38°C° 0 mm 6 mps 752 mmHg 15%
    19:00 +36°C° 0 mm 6 mps 752 mmHg 17%
    20:00 +34°C° 0 mm 5 mps 752 mmHg 19%
    21:00 +32°C° 0 mm 4 mps 752 mmHg 21%
    22:00 +29°C° 0 mm 3 mps 752 mmHg 23%
    23:00 +29°C° 0 mm 3 mps 751 mmHg 24%
    Show more